Location: Unspecified
(0.0000°N, 0.0000°E)
Time: 05:14:41
(UTC+00:00)

STARLINK-1273 - Visible Passes

Search period start: 14 February 2026 00:00
Search period end: 24 February 2026 00:00
Orbit: 441 x 445 km, 53.1° (Epoch: 11 February)

Date Brightness Start Highest point End Pass type
(mag) Time Alt. Az. Time Alt. Az. Time Alt. Az.
14 Feb 5.4 19:53:45 10° NW 19:54:53 19° NW 19:54:53 19° NW visible
15 Feb 3.2 19:13:25 10° NNW 19:16:48 51° ENE 19:18:34 25° ESE visible
16 Feb 4.2 18:33:14 10° N 18:36:14 27° NE 18:39:14 10° ESE visible
17 Feb 6.1 19:30:01 10° W 19:32:26 18° SW 19:34:52 10° SSW visible
18 Feb 6.6 05:33:56 10° SE 05:35:08 11° SE 05:36:20 10° ESE visible
18 Feb 5.2 18:48:27 10° WNW 18:51:35 31° SW 18:54:43 10° S visible
20 Feb 3.1 05:46:38 10° SW 05:50:05 89° W 05:53:33 10° NNE visible
21 Feb 4.3 05:05:35 10° SSW 05:08:54 43° SE 05:12:12 10° NE visible
22 Feb 5.5 04:26:35 20° SSE 04:27:35 23° SE 04:30:22 10° ENE visible
23 Feb 4.5 05:22:36 20° WNW 05:22:58 20° NW 05:25:35 10° N visible
